{"data":{"norad_id":81438,"epoch":"2026-09-12T10:50:12.073632Z","epoch_age_seconds":710461,"freshness":"AGED","line1":"1 81438U          26255.45152863  .00002076  00000+0  30132-2 0  9993","line2":"2 81438 100.3441 144.7450 0046548 114.2994 246.3013 13.56044631629022","mean_motion":13.56044631,"eccentricity":0.0046548,"inclination_deg":100.3441,"raan_deg":144.745,"arg_perigee_deg":114.2994,"mean_anomaly_deg":246.3013,"bstar":0.0030132,"rev_number":62902,"period_min":106.19119511856,"perigee_km":1015.5247570961,"apogee_km":1084.678688309,"semimajor_km":7428.2387227026,"source":"CELESTRAK","updated_at":"2026-09-20T09:00:32.388617Z"}}